Weather History for Benton Harbor, MI

Change the Weather History Date:

Tuesday, February 19, 2013

  Actual Average Record
Temperature  
Mean Temperature 30 °F -  
Max Temperature 42 °F 38 °F 58 °F (1954)
Min Temperature 17 °F 22 °F -1 °F (1993)
Degree Days  
Heating Degree Days 36    
Moisture  
Dew Point 16 °F    
Average Humidity 81    
Maximum Humidity 100    
Minimum Humidity 71    
Precipitation  
Precipitation 0.10 in - - ()
Sea Level Pressure  
Sea Level Pressure 29.84 in    
Wind  
Wind Speed 23 mph (West)    
Max Wind Speed 29 mph    
Max Gust Speed 41 mph    
Visibility 2 miles    
Events Fog , Rain , Snow    
Averages and records for this station are not official NWS values.
T = Trace of Precipitation, MM = Missing Value Source: NWS Daily Summary

Daily Weather History Graph

Daily Weather History Graph

Search for Another Location

Airport:

Trip Planner

Search our weather history database for the weather conditions in past years. The results will help you decide how hot, cold, wet, or windy it might be!

Date:

Astronomy

Feb. 19, 2013 Rise Set
Actual Time 7:35 AM EST 6:23 PM EST
Civil Twilight 7:07 AM EST 6:52 PM EST
Nautical Twilight 6:34 AM EST 7:24 PM EST
Astronomical Twilight 6:02 AM EST 7:57 PM EST
Moon 12:51 PM EST (2/19) 3:10 AM EST (2/19)
Length of Visible Light 11h 44m
Length of Day
10h 48m
Waxing Gibbous, 67% of the Moon is Illuminated
Feb 19
Waxing Gibbous
Feb 25
Full
Mar 4
Last Quarter
Mar 11
New
Mar 19
First Quarter

Hourly Weather History & Observations

Time (EST) Temp. Windchill Dew Point Humidity Pressure Visibility Wind Dir Wind Speed Gust Speed Precip Events Conditions
12:40 AM 42.8 °F 33.8 °F 39.2 °F 87% 29.45 in 3.0 mi WSW 21.9 mph 34.5 mph 0.05 in Rain Rain
12:44 AM 39.2 °F 29.3 °F 37.4 °F 93% 29.45 in 3.0 mi West 20.7 mph 34.5 mph 0.06 in Rain Light Rain
12:53 AM 39.0 °F 28.8 °F 37.0 °F 93% 29.47 in 5.0 mi West 21.9 mph - 0.06 in Rain Light Rain
1:53 AM 36.0 °F 25.3 °F 35.1 °F 97% 29.51 in 6.0 mi West 19.6 mph 31.1 mph 0.04 in   Overcast
2:07 AM 35.6 °F 24.0 °F 35.6 °F 100% 29.51 in 9.0 mi West 23.0 mph 31.1 mph 0.00 in   Overcast
2:53 AM 32.0 °F 19.2 °F 28.9 °F 88% 29.55 in 10.0 mi West 23.0 mph 32.2 mph 0.00 in   Overcast
3:53 AM 30.0 °F 15.4 °F 26.1 °F 85% 29.59 in 10.0 mi West 27.6 mph 38.0 mph N/A   Overcast
4:53 AM 27.0 °F 11.6 °F 23.0 °F 85% 29.62 in 10.0 mi West 26.5 mph 36.8 mph N/A   Overcast
5:53 AM 25.0 °F 8.9 °F 21.0 °F 85% 29.64 in 10.0 mi WSW 26.5 mph 35.7 mph N/A   Overcast
6:53 AM 23.0 °F 6.6 °F 18.0 °F 81% 29.67 in 10.0 mi WSW 25.3 mph 38.0 mph N/A   Overcast
7:08 AM 23.0 °F 6.6 °F 17.6 °F 80% 29.65 in 9.0 mi WSW 25.3 mph 36.8 mph N/A   Overcast
7:53 AM 21.0 °F 3.3 °F 17.1 °F 85% 29.70 in 4.0 mi West 27.6 mph 35.7 mph 0.00 in Snow Light Snow
8:04 AM 21.2 °F 3.5 °F 17.6 °F 86% 29.68 in 1.8 mi West 27.6 mph 39.1 mph 0.00 in Snow Light Snow
8:10 AM 21.2 °F 4.5 °F 15.8 °F 80% 29.68 in 0.8 mi West 24.2 mph 36.8 mph 0.00 in Snow Light Snow
8:53 AM 19.9 °F 2.2 °F 16.0 °F 85% 29.73 in 0.8 mi WSW 26.5 mph 35.7 mph 0.00 in Snow Light Snow
9:15 AM 19.4 °F 1.8 °F 15.8 °F 86% 29.72 in 0.5 mi WSW 25.3 mph 34.5 mph 0.00 in Fog , Snow Snow
9:53 AM 19.0 °F 1.3 °F 15.1 °F 85% 29.75 in 0.5 mi West 25.3 mph 32.2 mph 0.00 in Fog , Snow Snow
10:23 AM 19.4 °F 2.5 °F 15.8 °F 86% 29.74 in 0.2 mi West 23.0 mph 41.4 mph 0.00 in Fog , Snow Snow
10:53 AM 18.0 °F -0.2 °F 14.0 °F 84% 29.78 in 0.2 mi West 25.3 mph 33.4 mph 0.00 in Fog , Snow Snow
11:03 AM 17.6 °F -1.0 °F 15.8 °F 93% 29.76 in 0.2 mi West 26.5 mph 38.0 mph 0.00 in Fog , Snow Heavy Snow
11:12 AM 19.4 °F 1.8 °F 14.0 °F 80% 29.77 in 0.5 mi West 25.3 mph 38.0 mph 0.00 in Snow Snow
11:33 AM 19.4 °F 1.4 °F 14.0 °F 80% 29.78 in 0.2 mi West 26.5 mph 34.5 mph 0.00 in Snow Heavy Snow
11:53 AM 18.0 °F -0.8 °F 14.0 °F 84% 29.81 in 0.2 mi West 27.6 mph 38.0 mph 0.00 in Fog , Snow Snow
12:13 PM 19.4 °F 2.8 °F 14.0 °F 80% 29.79 in 0.2 mi West 21.9 mph 34.5 mph 0.00 in Snow Heavy Snow
12:36 PM 17.6 °F -1.6 °F 12.2 °F 79% 29.80 in 0.2 mi West 28.8 mph 34.5 mph 0.00 in Snow Heavy Snow
1:31 PM 17.6 °F 0.5 °F 12.2 °F 79% 29.82 in 0.8 mi West 21.9 mph 32.2 mph 0.00 in Snow Light Snow
1:53 PM 18.0 °F -1.1 °F 12.0 °F 78% 29.85 in 0.5 mi West 28.8 mph 34.5 mph 0.00 in Snow Snow
2:14 PM 17.6 °F 0.1 °F 12.2 °F 79% 29.83 in 1.0 mi West 23.0 mph 33.4 mph 0.00 in Snow Light Snow
2:34 PM 17.6 °F -1.3 °F 12.2 °F 79% 29.84 in 0.5 mi West 27.6 mph 32.2 mph 0.00 in Snow Snow
2:45 PM 17.6 °F 0.1 °F 10.4 °F 73% 29.84 in 1.0 mi West 23.0 mph 32.2 mph 0.00 in Snow Light Snow
2:53 PM 18.0 °F -0.2 °F 12.0 °F 78% 29.88 in 0.8 mi West 25.3 mph - 0.00 in Snow Light Snow
3:03 PM 17.6 °F -0.3 °F 12.2 °F 79% 29.85 in 0.5 mi West 24.2 mph 33.4 mph 0.00 in Snow Snow
3:14 PM 17.6 °F -1.0 °F 12.2 °F 79% 29.86 in 0.8 mi West 26.5 mph 34.5 mph 0.00 in Snow Light Snow
3:22 PM 17.6 °F -0.6 °F 12.2 °F 79% 29.86 in 0.5 mi West 25.3 mph 35.7 mph 0.00 in Snow Snow
3:53 PM 18.0 °F 1.3 °F 12.9 °F 81% 29.91 in 0.5 mi West 20.7 mph 34.5 mph 0.00 in Snow Snow
3:56 PM 17.6 °F 0.9 °F 12.2 °F 79% 29.88 in 1.0 mi West 20.7 mph 33.4 mph 0.00 in Snow Light Snow
4:07 PM 17.6 °F -1.0 °F 12.2 °F 79% 29.89 in 0.5 mi West 26.5 mph 34.5 mph 0.00 in Snow Snow
4:53 PM 17.1 °F -1.7 °F 12.0 °F 81% 29.95 in 0.2 mi West 26.5 mph 33.4 mph 0.00 in Snow Heavy Snow
5:53 PM 17.1 °F -0.3 °F 12.9 °F 84% 29.98 in 0.2 mi West 21.9 mph 32.2 mph 0.00 in Fog , Snow Snow
6:01 PM 17.6 °F 1.7 °F 12.2 °F 79% 29.95 in 1.0 mi West 18.4 mph 27.6 mph 0.00 in Snow Light Snow
6:13 PM 17.6 °F 0.9 °F 12.2 °F 79% 29.96 in 0.8 mi West 20.7 mph 31.1 mph 0.00 in Snow Light Snow
6:22 PM 17.6 °F 0.5 °F 12.2 °F 79% 29.96 in 0.5 mi West 21.9 mph 32.2 mph 0.00 in Snow Snow
6:32 PM 17.6 °F 1.3 °F 12.2 °F 79% 29.97 in 1.0 mi West 19.6 mph 31.1 mph 0.00 in Snow Light Snow
7:36 PM 17.6 °F 1.3 °F 12.2 °F 79% 29.99 in 1.2 mi West 19.6 mph 29.9 mph 0.00 in Snow Light Snow
7:45 PM 17.6 °F 0.9 °F 12.2 °F 79% 30.00 in 1.5 mi West 20.7 mph 29.9 mph 0.00 in Snow Light Snow
7:53 PM 18.0 °F 2.2 °F 12.0 °F 78% 30.04 in 1.2 mi West 18.4 mph 26.5 mph 0.00 in Snow Light Snow
8:10 PM 17.6 °F 2.2 °F 12.2 °F 79% 30.01 in 0.8 mi West 17.3 mph 28.8 mph 0.00 in Snow Light Snow
8:19 PM 17.6 °F 2.2 °F 12.2 °F 79% 30.01 in 1.0 mi West 17.3 mph 25.3 mph 0.00 in Snow Light Snow
8:43 PM 17.6 °F 3.2 °F 12.2 °F 79% 30.02 in 1.2 mi WNW 15.0 mph - 0.00 in Snow Light Snow
8:48 PM 17.6 °F 3.7 °F 10.4 °F 73% 30.02 in 2.0 mi WNW 13.8 mph 25.3 mph 0.00 in Snow Light Snow
8:53 PM 18.0 °F 4.8 °F 10.9 °F 74% 30.06 in 1.8 mi WNW 12.7 mph 25.3 mph 0.00 in Snow Light Snow
9:01 PM 17.6 °F 3.2 °F 10.4 °F 73% 30.02 in 3.0 mi WNW 15.0 mph 24.2 mph 0.00 in Snow Light Snow
9:53 PM 18.0 °F 4.2 °F 10.0 °F 71% 30.08 in 4.0 mi WNW 13.8 mph 25.3 mph 0.00 in Snow Light Snow
10:33 PM 17.6 °F 5.0 °F 10.4 °F 73% 30.06 in 1.8 mi WNW 11.5 mph 25.3 mph 0.00 in Snow Light Snow
10:50 PM 17.6 °F 4.3 °F 10.4 °F 73% 30.05 in 2.5 mi WNW 12.7 mph 25.3 mph 0.00 in Snow Light Snow
10:53 PM 18.0 °F 3.6 °F 10.0 °F 71% 30.09 in 2.5 mi WNW 15.0 mph 23.0 mph 0.00 in Snow Light Snow
11:11 PM 17.6 °F 3.2 °F 10.4 °F 73% 30.05 in 1.8 mi WNW 15.0 mph 24.2 mph 0.00 in Snow Light Snow
11:38 PM 17.6 °F 4.3 °F 10.4 °F 73% 30.06 in 2.5 mi NW 12.7 mph 24.2 mph 0.00 in Snow Light Snow
11:45 PM 17.6 °F 4.3 °F 10.4 °F 73% 30.06 in 3.0 mi WNW 12.7 mph 20.7 mph 0.00 in Snow Light Snow
11:53 PM 18.0 °F 2.6 °F 10.0 °F 71% 30.10 in 2.5 mi WNW 17.3 mph 25.3 mph 0.00 in Snow Light Snow